Cloud_Cover
100 65 96 41 63 39 5 5 1 5 6 5 96 100 99 44 6 11 5 31 93 5 28 47 22 5 5 5 5 5 5 4 2 0 0 0 4 5 4 5 5 31 65
100 100 84 85 100 98 13 37 56 5 5 17 6 6 5 24 5 5 5 13 10 23 69 50 79 75 100 99 43 43 10 11 5 3 0 1 0 5 5 5 5 5 47
100 100 92 56 82 88 100 100 12 5 3 8 19 22 19 46 50 34 5 37 100 97 14 53 100 100 100 100 100 100 100 80 5 16 13 4 33 27 5 46 7 5 9
100 100 100 100 100 100 100 100 100 92 87 100 88 64 66 29 16 5 5 5 5 20 10 44 88 100 100 100 100 100 100 66 36 49 18 21 34 26 51 15 5 5 5
100 100 100 100 53 22 82 94 100 100 99 96 28 57 31 90 30 6 2 15 20 7 5 5 51 96 100 100 100 100 100 100 100 100 52 35 19 58 61 78 5 5 5
99 100 100 100 99 82 47 37 70 72 62 78 61 60 5 6 44 69 64 58 50 32 70 54 84 100 100 100 100 100 100 100 100 100 100 100 47 100 94 63 83 5 5
92 97 99 94 56 37 22 13 7 5 5 5 5 5 21 58 35 35 42 80 56 89 18 26 99 100 100 85 96 100 97 100 100 100 100 100 100 100 94 7 66 5 5
5 5 5 5 5 5 5 22 72 72 26 5 15 13 5 5 6 5 8 70 10 41 99 88 10 58 79 72 100 100 96 100 100 100 100 100 91 100 100 99 43 10 10
5 5 5 1 1 5 5 6 27 24 16 54 14 47 60 52 62 54 58 12 80 74 34 87 98 53 44 88 100 100 100 100 100 100 100 100 99 100 100 98 38 11 5
0 0 4 5 14 61 70 68 87 97 100 80 18 14 7 8 8 19 47 62 80 100 100 100 100 88 91 100 100 100 100 100 100 100 100 100 100 100 100 100 95 71 84
23 91 100 100 92 35 9 5 15 5 8 6 5 20 42 26 20 20 15 10 9 43 82 51 74 99 100 100 100 100 100 100 100 100 100 100 100 100 100 100 94 100 75
9 7 8 5 5 4 4 5 7 37 78 5 11 39 49 37 38 47 48 72 76 91 71 61 96 100 100 100 100 100 100 100 100 100 100 100 100 100 100 100 100 100 92
53 100 100 72 4 4 5 5 23 94 100 100 85 40 57 66 96 100 100 100 100 100 100 100 100 100 100 100 100 100 100 100 100 100 100 100 100 100 100 100 100 100 94
100 82 81 5 2 1 5 43 82 37 100 100 100 100 100 100 100 100 100 100 100 100 100 100 100 100 100 100 100 100 100 100 100 100 100 100 100 100 100 100 92 99 70
89 47 97 5 5 5 5 5 6 5 100 100 100 100 100 100 100 100 93 100 100 100 98 100 100 100 100 100 100 100 100 100 100 100 100 100 100 100 100 100 100 100 100
100 55 74 24 7 6 48 54 99 13 68 100 100 100 100 100 100 100 100 100 100 100 100 100 100 100 100 100 100 100 100 100 100 100 100 100 100 100 100 100 100 100 100
99 100 100 82 97 95 100 100 98 98 90 100 100 100 100 100 100 100 100 100 100 100 100 100 100 100 100 100 100 100 100 100 100 100 83 98 100 100 100 100 100 100 100
100 100 89 100 100 100 100 100 100 100 100 100 100 100 100 100 100 100 100 100 100 100 100 100 100 100 100 100 100 100 100 100 100 100 100 90 99 100 100 100 100 100 100
100 100 100 100 100 100 100 100 100 100 100 100 100 100 100 100 100 100 100 100 100 100 100 100 100 100 100 100 100 100 100 100 100 100 100 100 100 100 100 100 99 100 100
100 100 100 100 100 100 100 100 100 100 100 100 100 100 100 100 100 100 100 100 100 100 100 100 100 100 99 95 96 98 65 50 50 98 100 95 64 7 72 100 100 34 7
100 100 100 100 100 100 100 100 100 100 100 100 100 100 100 100 100 100 100 100 100 100 100 100 100 98 100 100 88 16 67 94 89 35 5 5 9 96 100 99 61 6 55
64 92 100 100 100 100 100 100 100 100 100 100 100 100 100 100 100 100 100 100 100 100 100 100 100 100 79 47 93 27 11 5 5 5 5 12 84 100 76 22 10 93 96
100 100 100 100 100 94 100 100 100 100 100 100 100 100 99 100 100 100 98 53 54 9 30 82 100 68 20 37 8 42 36 8 35 5 76 14 8 10 4 5 85 76 5
99 99 100 100 100 100 100 100 100 100 100 100 100 100 100 100 100 100 100 100 98 96 84 30 46 55 75 99 80 20 8 16 32 23 5 5 2 4 5 5 5 5 6
77 74 100 100 100 100 100 100 70 100 99 90 94 100 100 100 98 73 31 11 6 30 59 100 86 60 35 34 49 43 36 94 47 40 4 0 2 5 5 5 5 5 8
83 79 100 100 100 80 34 48 96 67 100 100 100 87 35 9 9 5 32 91 97 71 60 83 70 66 70 78 64 80 74 86 75 6 3 5 5 5 6 45 53 60 60